BEIDOU-3 M5 (C23)

Last updated on Sun Jun 21 2026 00:03:32 GMT+0000 (Coordinated Universal Time)

1 43581U 18062A 26171.32881155 .00000068 00000+0 00000+0 0 9990 2 43581 54.0851 182.1963 0005659 290.1184 69.8429 1.86228559 53693
UTC large
Height (km)
Speed (km/s)
/
Latitude / Longitude
Inclination (degrees)
Orbital Period (minutes)
Azimuth
Elevation
Range (km)
Doppler Factor

Next 0 passes for location: London (51.5072 / 0.1276)

No passes found over London.
BEIDOU-3 M5 (C23)